sat.trackr.live / text

‹ back to catalog

STARLINK-30791

NORAD 58177 · 2023-167C

PAYLOAD ACTIVE UNKNOWN

§ Identity

Operator
Country
US
Launch date
2023-10-30
Launch site
AFETR
Launch vehicle
Mass (kg)
RCS (m²)

Purposes: comms

External: N2YO · Heavens-Above · Gunter

§ Orbital elements

Epoch: 2026-05-25T03:56:36.569760Z

Period
94.27 min
Inclination
43.0031°
Eccentricity
0.0001153
Mean motion
15.27582749 rev/d
Perigee alt
482.2 km
Apogee alt
483.8 km
Semi-major
6,861.2 km
B*
4.8968e-5
RAAN
71.2706°
Arg perigee
280.6350°
Mean anomaly
79.4372°
Rev number
14,268

§ Raw data

STARLINK-307911 58177U 23167C   26145.16431215  .00001086  00000+0  48968-4 0  99912 58177  43.0031  71.2706 0001153 280.6350  79.4372 15.27582749142681

JSON: /api/v1/satellites/58177 · /tle

For live sub-satellite position, see the globe view (requires WebGL).

§ Visibility from observer

Set your observer location to see the next 7 days of passes ≥ 10°. The values pass through the URL so the page stays shareable.

No JS? Fill the form by hand. The geolocation button needs JavaScript.